Hagerstown, MD

4:13 PM EDT on September 19, 2017 (GMT -0400)
Hagerstown Regional-Henson

Weather History for KHGR - February, 2013

Change the Weather History Date:

Thursday, February 14, 2013

  Actual Average Record
Temperature  
Mean Temperature 39 °F 33 °F  
Max Temperature 48 °F 41 °F 57 °F (2011)
Min Temperature 30 °F 26 °F 7 °F (2016)
Degree Days  
Heating Degree Days 26 32  
Month to date heating degree days 460 456  
Since 1 July heating degree days 3200 3480  
Cooling Degree Days 0 0  
Month to date cooling degree days 0 0  
Year to date cooling degree days 0 0  
Moisture  
Dew Point 28 °F    
Average Humidity 73    
Maximum Humidity 100    
Minimum Humidity 45    
Precipitation  
Precipitation 0.00 in 0.09 in 0.68 in (2007)
Month to date precipitation 0.32 1.29  
Year to date precipitation 3.30 3.97  
Sea Level Pressure  
Sea Level Pressure 29.94 in    
Wind  
Wind Speed 5 mph (SSW)    
Max Wind Speed 15 mph    
Max Gust Speed 18 mph    
Visibility 8 miles    
Events Fog    
T = Trace of Precipitation, MM = Missing Value Source: NWS Daily Summary

Daily Weather History Graph

Daily Weather History Graph

Search for Another Location

Airport or City:

Trip Planner

Search our weather history database for the weather conditions in past years. The results will help you decide how hot, cold, wet, or windy it might be!

Date:

Astronomy

Feb. 14, 2013 Rise Set
Actual Time 7:04 AM EST 5:46 PM EST
Civil Twilight 6:36 AM EST 6:14 PM EST
Nautical Twilight 6:05 AM EST 6:45 PM EST
Astronomical Twilight 5:33 AM EST 7:17 PM EST
Moon 9:06 AM EST (2/14) 10:46 PM EST (2/14)
Length of Visible Light 11h 37m
Length of Day
10h 42m
Waxing Crescent, 21% of the Moon is Illuminated
Feb 14
Waxing Crescent
Feb 17
First Quarter
Feb 25
Full
Mar 4
Last Quarter
Mar 11
New

Hourly Weather History & Observations

Time (EST) Temp. Windchill Dew Point Humidity Pressure Visibility Wind Dir Wind Speed Gust Speed Precip Events Conditions
12:09 AM 30.2 °F 26.7 °F 30.2 °F 100% 29.76 in 0.2 mi South 3.5 mph - N/A Fog Light Freezing Fog
12:27 AM 32.0 °F 28.7 °F 32.0 °F 100% 29.77 in 0.2 mi South 3.5 mph - N/A Fog Fog
12:50 AM 32.0 °F 28.7 °F 32.0 °F 100% 29.78 in 0.2 mi SSW 3.5 mph - N/A Fog Fog
12:53 AM 32.0 °F - 32.0 °F 100% 29.83 in 0.2 mi Calm Calm - N/A Fog Fog
1:03 AM 32.0 °F 28.7 °F 32.0 °F 100% 29.79 in 1.0 mi WSW 3.5 mph - N/A   Overcast
1:09 AM 32.0 °F 27.5 °F 32.0 °F 100% 29.79 in 3.0 mi WSW 4.6 mph - N/A   Overcast
1:53 AM 33.1 °F - 33.1 °F 100% 29.86 in 4.0 mi Calm Calm - N/A   Overcast
2:48 AM 35.6 °F - 30.2 °F 81% 29.83 in 10.0 mi Calm Calm - N/A   Overcast
2:53 AM 35.1 °F - 30.0 °F 82% 29.87 in 10.0 mi Calm Calm - N/A   Overcast
3:53 AM 33.1 °F 26.1 °F 26.1 °F 75% 29.90 in 9.0 mi NW 8.1 mph - N/A   Clear
4:53 AM 32.0 °F 24.2 °F 25.0 °F 75% 29.94 in 9.0 mi WNW 9.2 mph - N/A   Partly Cloudy
5:53 AM 32.0 °F 28.7 °F 25.0 °F 75% 29.96 in 9.0 mi West 3.5 mph - N/A   Clear
6:53 AM 30.9 °F 23.5 °F 24.1 °F 76% 29.99 in 9.0 mi West 8.1 mph - N/A   Clear
7:53 AM 32.0 °F 23.6 °F 24.1 °F 73% 30.01 in 9.0 mi WNW 10.4 mph - N/A   Clear
8:53 AM 34.0 °F 28.8 °F 23.0 °F 64% 30.02 in 9.0 mi NNW 5.8 mph - N/A   Clear
9:53 AM 36.0 °F - 23.0 °F 59% 30.03 in 10.0 mi Calm Calm - N/A   Clear
10:53 AM 36.0 °F 33.3 °F 25.0 °F 64% 30.03 in 10.0 mi South 3.5 mph - N/A   Clear
11:53 AM 39.0 °F 35.7 °F 27.0 °F 62% 30.02 in 8.0 mi South 4.6 mph - N/A   Clear
12:53 PM 42.1 °F 37.7 °F 28.0 °F 58% 30.01 in 10.0 mi Variable 6.9 mph - N/A   Clear
1:53 PM 43.0 °F 40.3 °F 28.0 °F 56% 29.99 in 10.0 mi Variable 4.6 mph - N/A   Clear
2:53 PM 45.0 °F - 28.0 °F 52% 29.97 in 10.0 mi Calm Calm - N/A   Scattered Clouds
3:53 PM 46.0 °F 42.5 °F 27.0 °F 47% 29.98 in 10.0 mi South 6.9 mph - N/A   Partly Cloudy
4:53 PM 46.0 °F 43.1 °F 28.0 °F 50% 29.96 in 10.0 mi SSE 5.8 mph - N/A   Overcast
5:53 PM 43.0 °F 39.5 °F 28.0 °F 56% 29.98 in 10.0 mi South 5.8 mph - N/A   Clear
6:53 PM 42.1 °F 38.4 °F 28.0 °F 58% 30.00 in 10.0 mi South 5.8 mph - N/A   Partly Cloudy
7:53 PM 41.0 °F 35.2 °F 28.0 °F 60% 30.00 in 10.0 mi SSE 9.2 mph - N/A   Scattered Clouds
8:53 PM 39.9 °F 35.8 °F 27.0 °F 60% 30.00 in 10.0 mi SE 5.8 mph - N/A   Clear
9:53 PM 37.9 °F 33.5 °F 26.1 °F 62% 30.00 in 10.0 mi South 5.8 mph - N/A   Partly Cloudy
10:53 PM 37.9 °F 33.5 °F 26.1 °F 62% 29.99 in 10.0 mi SSE 5.8 mph - N/A   Partly Cloudy
11:53 PM 37.0 °F 31.6 °F 26.1 °F 65% 29.99 in 10.0 mi South 6.9 mph - N/A   Clear